TimeCST,TemperatureF,Dew PointF,Humidity,Sea Level PressureIn,VisibilityMPH,Wind Direction,Wind SpeedMPH,Gust SpeedMPH,PrecipitationIn,Events,Conditions,WindDirDegrees,DateUTC
12:53 AM,51.1,45.0,80,30.19,8.0,North,5.8,-,N/A,,Overcast,350,2013-01-26 06:53:00
1:53 AM,50.0,43.0,77,30.18,8.0,North,6.9,-,N/A,,Overcast,10,2013-01-26 07:53:00
2:51 AM,50.0,44.6,82,30.17,7.0,NNE,4.6,-,N/A,,Overcast,20,2013-01-26 08:51:00
2:53 AM,50.0,44.1,80,30.17,7.0,NNE,5.8,-,N/A,,Overcast,20,2013-01-26 08:53:00
3:53 AM,48.9,44.1,83,30.17,5.0,North,8.1,-,N/A,,Haze,360,2013-01-26 09:53:00
4:34 AM,48.2,44.6,87,30.17,2.0,North,4.6,-,N/A,,Overcast,10,2013-01-26 10:34:00
4:42 AM,48.2,46.4,93,30.16,1.8,NNE,3.5,-,N/A,,Overcast,20,2013-01-26 10:42:00
4:53 AM,48.0,46.0,93,30.15,1.5,NNE,4.6,-,N/A,,Overcast,30,2013-01-26 10:53:00
5:08 AM,48.2,46.4,93,30.15,1.8,North,4.6,-,N/A,,Overcast,360,2013-01-26 11:08:00
5:30 AM,46.4,46.4,100,30.16,2.0,NNW,5.8,-,N/A,,Overcast,340,2013-01-26 11:30:00
5:51 AM,48.2,46.4,93,30.16,3.0,North,4.6,-,N/A,,Overcast,350,2013-01-26 11:51:00
5:53 AM,48.0,46.0,93,30.16,3.0,North,5.8,-,N/A,,Overcast,360,2013-01-26 11:53:00
6:05 AM,48.2,44.6,87,30.17,4.0,North,6.9,-,N/A,,Overcast,360,2013-01-26 12:05:00
6:53 AM,48.0,45.0,89,30.19,3.0,North,4.6,-,N/A,,Overcast,350,2013-01-26 12:53:00
7:13 AM,48.2,44.6,87,30.18,2.5,Calm,Calm,-,N/A,,Overcast,0,2013-01-26 13:13:00
7:45 AM,46.4,44.6,93,30.19,1.5,North,4.6,-,N/A,,Overcast,350,2013-01-26 13:45:00
7:53 AM,46.9,45.0,93,30.19,1.5,NNW,4.6,-,N/A,,Overcast,340,2013-01-26 13:53:00
8:45 AM,46.4,44.6,93,30.20,1.2,NNW,5.8,-,N/A,,Overcast,340,2013-01-26 14:45:00
8:53 AM,46.9,45.0,93,30.21,1.2,NNW,5.8,-,N/A,,Overcast,330,2013-01-26 14:53:00
9:20 AM,46.4,46.4,100,30.21,0.8,NNW,4.6,-,N/A,,Overcast,340,2013-01-26 15:20:00
9:53 AM,48.0,46.0,93,30.23,0.8,NW,4.6,-,N/A,,Overcast,320,2013-01-26 15:53:00
10:35 AM,48.2,46.4,93,30.23,1.0,NNW,3.5,-,N/A,,Overcast,340,2013-01-26 16:35:00
10:53 AM,48.9,48.0,97,30.22,1.5,North,4.6,-,N/A,,Overcast,360,2013-01-26 16:53:00
11:16 AM,50.0,48.2,94,30.22,2.0,North,5.8,-,N/A,,Overcast,10,2013-01-26 17:16:00
11:53 AM,50.0,48.9,96,30.23,1.8,North,3.5,-,N/A,,Overcast,360,2013-01-26 17:53:00
12:53 PM,51.1,48.9,92,30.19,2.0,NNE,4.6,-,N/A,,Overcast,20,2013-01-26 18:53:00
1:24 PM,51.8,50.0,94,30.17,1.2,NE,3.5,-,N/A,,Overcast,50,2013-01-26 19:24:00
1:53 PM,52.0,50.0,93,30.16,1.8,NE,4.6,-,N/A,,Overcast,40,2013-01-26 19:53:00
2:00 PM,51.8,50.0,94,30.15,2.5,ENE,3.5,-,N/A,,Overcast,70,2013-01-26 20:00:00
2:16 PM,51.8,50.0,94,30.15,1.8,NE,4.6,-,N/A,,Overcast,40,2013-01-26 20:16:00
2:38 PM,51.8,50.0,94,30.15,2.5,NE,3.5,-,N/A,,Overcast,40,2013-01-26 20:38:00
2:50 PM,51.8,50.0,94,30.15,3.0,ENE,3.5,-,N/A,,Overcast,70,2013-01-26 20:50:00
2:53 PM,52.0,50.0,93,30.15,3.0,ENE,3.5,-,N/A,,Overcast,70,2013-01-26 20:53:00
3:53 PM,53.1,51.1,93,30.15,4.0,East,4.6,-,N/A,,Overcast,90,2013-01-26 21:53:00
4:53 PM,53.1,51.1,93,30.14,2.5,ENE,4.6,-,N/A,,Overcast,60,2013-01-26 22:53:00
5:11 PM,53.6,51.8,94,30.14,1.8,East,5.8,-,N/A,,Overcast,80,2013-01-26 23:11:00
5:53 PM,53.1,52.0,96,30.14,1.0,ENE,4.6,-,N/A,,Overcast,60,2013-01-26 23:53:00
6:27 PM,53.6,51.8,94,30.13,0.8,ENE,5.8,-,N/A,,Overcast,60,2013-01-27 00:27:00
6:41 PM,53.6,51.8,94,30.14,1.0,NE,5.8,-,N/A,,Overcast,50,2013-01-27 00:41:00
6:53 PM,53.1,52.0,96,30.14,1.5,NE,3.5,-,N/A,,Overcast,50,2013-01-27 00:53:00
7:27 PM,51.8,51.8,100,30.14,0.5,ENE,8.1,-,N/A,Fog,Fog,60,2013-01-27 01:27:00
7:53 PM,52.0,51.1,97,30.14,0.2,East,6.9,-,N/A,Fog,Fog,80,2013-01-27 01:53:00
8:53 PM,52.0,51.1,97,30.14,0.2,East,5.8,-,N/A,Fog,Fog,100,2013-01-27 02:53:00
9:53 PM,52.0,52.0,100,30.15,0.2,East,4.6,-,N/A,Fog,Fog,100,2013-01-27 03:53:00
10:53 PM,52.0,51.1,97,30.14,0.2,ESE,9.2,-,N/A,Fog,Fog,120,2013-01-27 04:53:00
11:53 PM,52.0,52.0,100,30.12,0.2,ESE,8.1,-,N/A,Fog,Fog,120,2013-01-27 05:53:00